Adak, AK

10:12 AM HDT on August 30, 2016 (GMT -0900)
Adak

Weather History for PADK - February, 2013

Change the Weather History Date:

Friday, February 1, 2013

  Actual Average Record
Temperature  
Mean Temperature 34 °F -  
Max Temperature 35 °F 34 °F 45 °F (1957)
Min Temperature 33 °F 27 °F 15 °F (2016)
Degree Days  
Heating Degree Days 31    
Moisture  
Dew Point 29 °F    
Average Humidity 81    
Maximum Humidity 93    
Minimum Humidity 65    
Precipitation  
Precipitation 34.21 in - - ()
Sea Level Pressure  
Sea Level Pressure 29.35 in    
Wind  
Wind Speed 19 mph (ENE)    
Max Wind Speed 24 mph    
Max Gust Speed 28 mph    
Visibility 9 miles    
Events      
Averages and records for this station are not official NWS values.
T = Trace of Precipitation, MM = Missing Value Source: NWS Daily Summary

Daily Weather History Graph

Daily Weather History Graph

Search for Another Location

Airport or City:

Trip Planner

Search our weather history database for the weather conditions in past years. The results will help you decide how hot, cold, wet, or windy it might be!

Date:

Astronomy

Feb. 01, 2013 Rise Set
Actual Time 9:25 AM HST 6:36 PM HST
Civil Twilight 8:48 AM HST 7:12 PM HST
Nautical Twilight 8:08 AM HST 7:52 PM HST
Astronomical Twilight 7:28 AM HST 8:32 PM HST
Moon 12:39 AM HST (2/1) 11:16 AM HST (2/1)
Length of Visible Light 10h 23m
Length of Day
9h 10m
Waning Gibbous, 68% of the Moon is Illuminated
Feb 1
Waning Gibbous
Feb 3
Last Quarter
Feb 9
New
Feb 17
First Quarter
Feb 25
Full

Hourly Weather History & Observations

Time (HST) Temp. Windchill Dew Point Humidity Pressure Visibility Wind Dir Wind Speed Gust Speed Precip Events Conditions
12:16 AM 35.6 °F 24.8 °F 24.8 °F 65% 29.61 in 10.0 mi East 19.6 mph - N/A   Overcast
12:36 AM 35.6 °F 24.8 °F 24.8 °F 65% 29.59 in 10.0 mi East 19.6 mph - N/A   Overcast
12:56 AM 35.6 °F 24.0 °F 24.8 °F 65% 29.59 in 10.0 mi East 23.0 mph - N/A   Overcast
1:16 AM 35.6 °F 24.8 °F 24.8 °F 65% 29.58 in 10.0 mi East 19.6 mph - N/A   Overcast
1:36 AM 35.6 °F 25.5 °F 26.6 °F 70% 29.58 in 10.0 mi East 17.3 mph - N/A   Overcast
1:56 AM 35.6 °F 25.2 °F 26.6 °F 70% 29.57 in 10.0 mi East 18.4 mph 24.2 mph N/A   Overcast
2:16 AM 35.6 °F 23.7 °F 26.6 °F 70% 29.57 in 10.0 mi East 24.2 mph - N/A   Overcast
2:36 AM 35.6 °F 24.0 °F 28.4 °F 75% 29.56 in 10.0 mi East 23.0 mph 26.5 mph N/A   Overcast
2:56 AM 35.6 °F 24.2 °F 26.6 °F 70% 29.55 in 10.0 mi East 21.9 mph 27.6 mph N/A   Overcast
3:16 AM 33.8 °F 21.9 °F 28.4 °F 81% 29.54 in 5.0 mi East 21.9 mph - N/A   Overcast
3:36 AM 33.8 °F 23.2 °F 28.4 °F 81% 29.53 in 10.0 mi East 17.3 mph - N/A   Overcast
3:56 AM 35.6 °F 24.0 °F 28.4 °F 75% 29.52 in 10.0 mi East 23.0 mph 26.5 mph N/A   Overcast
4:16 AM 35.6 °F 24.2 °F 28.4 °F 75% 29.51 in 10.0 mi East 21.9 mph 27.6 mph N/A   Overcast
4:36 AM 35.6 °F 24.5 °F 28.4 °F 75% 29.50 in 10.0 mi East 20.7 mph - N/A   Overcast
4:56 AM 33.8 °F 22.2 °F 28.4 °F 81% 29.49 in 10.0 mi East 20.7 mph - N/A   Mostly Cloudy
5:16 AM 35.6 °F 25.2 °F 28.4 °F 75% 29.48 in 10.0 mi East 18.4 mph - N/A   Mostly Cloudy
5:36 AM 35.6 °F 24.2 °F 28.4 °F 75% 29.47 in 10.0 mi East 21.9 mph 25.3 mph N/A   Overcast
5:56 AM 35.6 °F 26.6 °F 28.4 °F 75% 29.45 in 10.0 mi East 13.8 mph - N/A   Overcast
6:16 AM 35.6 °F 24.5 °F 28.4 °F 75% 29.45 in 10.0 mi East 20.7 mph 26.5 mph N/A   Overcast
6:36 AM 33.8 °F 23.2 °F 28.4 °F 81% 29.45 in 10.0 mi East 17.3 mph - N/A   Overcast
6:56 AM 33.8 °F 23.5 °F 30.2 °F 87% 29.43 in 10.0 mi ENE 16.1 mph - N/A   Overcast
7:16 AM 33.8 °F 22.8 °F 30.2 °F 87% 29.43 in 10.0 mi East 18.4 mph - N/A   Mostly Cloudy
7:36 AM 33.8 °F 22.2 °F 30.2 °F 87% 29.43 in 10.0 mi East 20.7 mph - N/A   Overcast
7:56 AM 33.8 °F 22.5 °F 30.2 °F 87% 29.42 in 5.0 mi East 19.6 mph 26.5 mph N/A   Overcast
8:16 AM 33.8 °F 22.8 °F 30.2 °F 87% 29.41 in 4.0 mi East 18.4 mph 25.3 mph N/A   Overcast
8:36 AM 33.8 °F 23.2 °F 30.2 °F 87% 29.40 in 6.0 mi ENE 17.3 mph - N/A   Overcast
8:56 AM 33.8 °F 22.5 °F 30.2 °F 87% 29.40 in 10.0 mi ENE 19.6 mph - N/A   Mostly Cloudy
9:16 AM 33.8 °F 23.9 °F 30.2 °F 87% 29.39 in 4.0 mi ENE 15.0 mph 26.5 mph N/A   Mostly Cloudy
9:36 AM 33.8 °F 22.2 °F 30.2 °F 87% 29.39 in 10.0 mi East 20.7 mph - N/A   Overcast
9:56 AM 35.6 °F 24.2 °F 30.2 °F 81% 29.39 in 10.0 mi East 21.9 mph - N/A   Overcast
10:16 AM 33.8 °F 22.2 °F 30.2 °F 87% 29.38 in 10.0 mi ENE 20.7 mph 24.2 mph N/A   Overcast
10:36 AM 35.6 °F 24.5 °F 28.4 °F 75% 29.37 in 10.0 mi ENE 20.7 mph - N/A   Overcast
10:56 AM 35.6 °F 24.0 °F 28.4 °F 75% 29.37 in 5.0 mi ENE 23.0 mph - N/A   Overcast
11:16 AM 35.6 °F 24.5 °F 28.4 °F 75% 29.35 in 10.0 mi ENE 20.7 mph 25.3 mph N/A   Mostly Cloudy
11:36 AM 35.6 °F 25.9 °F 28.4 °F 75% 29.34 in 10.0 mi NE 16.1 mph - N/A   Overcast
11:56 AM 35.6 °F 25.5 °F 30.2 °F 81% 29.34 in 10.0 mi NE 17.3 mph - N/A   Overcast
12:16 PM 35.6 °F 24.8 °F 30.2 °F 81% 29.33 in 10.0 mi NE 19.6 mph - N/A   Overcast
12:36 PM 35.6 °F 26.6 °F 30.2 °F 81% 29.32 in 10.0 mi NE 13.8 mph - N/A   Mostly Cloudy
12:56 PM 35.6 °F 24.5 °F 30.2 °F 81% 29.32 in 10.0 mi NE 20.7 mph - N/A   Mostly Cloudy
1:16 PM 35.6 °F 25.5 °F 30.2 °F 81% 29.31 in 10.0 mi NE 17.3 mph - N/A   Mostly Cloudy
1:36 PM 35.6 °F 25.5 °F 30.2 °F 81% 29.30 in 10.0 mi East 17.3 mph 21.9 mph N/A   Overcast
1:56 PM 35.6 °F 25.5 °F 28.4 °F 75% 29.29 in 10.0 mi NE 17.3 mph - N/A   Overcast
2:16 PM 35.6 °F 25.5 °F 30.2 °F 81% 29.28 in 10.0 mi NE 17.3 mph - N/A   Overcast
2:36 PM 35.6 °F 25.2 °F 30.2 °F 81% 29.27 in 10.0 mi NE 18.4 mph - N/A   Overcast
2:56 PM 35.6 °F 26.2 °F 30.2 °F 81% 29.26 in 10.0 mi NE 15.0 mph - N/A   Mostly Cloudy
3:16 PM 35.6 °F 27.1 °F 30.2 °F 81% 29.26 in 10.0 mi NE 12.7 mph - 0.06 in   Overcast
3:36 PM 33.8 °F 22.2 °F 30.2 °F 87% 29.24 in 5.0 mi NE 20.7 mph - 0.57 in   Overcast
3:56 PM 33.8 °F 22.5 °F 30.2 °F 87% 29.24 in 1.2 mi NE 19.6 mph 23.0 mph 1.26 in   Overcast
4:16 PM 33.8 °F 23.2 °F 30.2 °F 87% 29.24 in 1.2 mi NE 17.3 mph - 0.59 in   Overcast
4:36 PM 33.8 °F 25.3 °F 30.2 °F 87% 29.24 in 1.5 mi NE 11.5 mph - 1.22 in   Overcast
4:56 PM 33.8 °F 21.9 °F 30.2 °F 87% 29.23 in 10.0 mi NE 21.9 mph 25.3 mph 2.17 in   Mostly Cloudy
5:16 PM 33.8 °F 23.9 °F 28.4 °F 81% 29.22 in 10.0 mi ENE 15.0 mph - 0.80 in   Overcast
5:36 PM 33.8 °F 23.5 °F 28.4 °F 81% 29.22 in 10.0 mi NE 16.1 mph 20.7 mph 1.16 in   Overcast
5:56 PM 33.8 °F 23.5 °F 28.4 °F 81% 29.21 in 10.0 mi NE 16.1 mph - 2.46 in   Overcast
6:16 PM 33.8 °F 23.2 °F 28.4 °F 81% 29.21 in 10.0 mi NE 17.3 mph - 0.36 in   Overcast
6:36 PM 33.8 °F 25.3 °F 28.4 °F 81% 29.21 in 10.0 mi NNE 11.5 mph - 0.76 in   Mostly Cloudy
6:56 PM 33.8 °F 23.2 °F 28.4 °F 81% 29.20 in 10.0 mi North 17.3 mph - 1.16 in   Overcast
7:16 PM 33.8 °F 23.5 °F 28.4 °F 81% 29.21 in 10.0 mi North 16.1 mph - 0.47 in   Overcast
7:36 PM 33.8 °F 25.3 °F 28.4 °F 81% 29.21 in 10.0 mi NNE 11.5 mph - 1.29 in   Overcast
7:56 PM 33.8 °F 24.3 °F 30.2 °F 87% 29.20 in 5.0 mi NNE 13.8 mph - 2.34 in   Mostly Cloudy
8:16 PM 33.8 °F 22.5 °F 30.2 °F 87% 29.20 in 5.0 mi NNE 19.6 mph 24.2 mph 2.64 in   Mostly Cloudy
8:36 PM 33.8 °F 22.5 °F 30.2 °F 87% 29.20 in 5.0 mi NNE 19.6 mph 27.6 mph 5.15 in   Overcast
8:56 PM 33.8 °F 23.2 °F 30.2 °F 87% 29.20 in 6.0 mi NNE 17.3 mph - 6.34 in   Overcast
9:16 PM 33.8 °F 22.8 °F 30.2 °F 87% 29.19 in 10.0 mi NNE 18.4 mph 26.5 mph 1.60 in   Overcast
9:36 PM 33.8 °F 22.8 °F 30.2 °F 87% 29.20 in 8.0 mi NNE 18.4 mph - 3.32 in   Mostly Cloudy
9:56 PM 33.8 °F 22.5 °F 30.2 °F 87% 29.19 in 10.0 mi NNE 19.6 mph - 5.88 in   Mostly Cloudy
10:16 PM 33.8 °F 22.5 °F 30.2 °F 87% 29.19 in 10.0 mi NNE 19.6 mph - 3.00 in   Mostly Cloudy
10:36 PM 33.8 °F 23.2 °F 30.2 °F 87% 29.19 in 10.0 mi NNE 17.3 mph - 5.15 in   Mostly Cloudy
10:56 PM 33.8 °F 22.2 °F 30.2 °F 87% 29.19 in 10.0 mi North 20.7 mph - 7.16 in   Mostly Cloudy
11:16 PM 33.8 °F 23.2 °F 30.2 °F 87% 29.19 in 3.0 mi North 17.3 mph - 1.72 in   Overcast
11:36 PM 33.8 °F 22.8 °F 32.0 °F 93% 29.19 in 8.0 mi NNE 18.4 mph - 2.73 in   Overcast
11:56 PM 33.8 °F 22.2 °F 30.2 °F 87% 29.19 in 10.0 mi North 20.7 mph - 5.15 in   Overcast